Location: Unspecified
(41.1637°N, 24.2901°E)
Time: 14:50:19
(UTC+02:00)

ISS - Pass Details

Date: 03 July 2022
Orbit: 414 x 420 km, 51.6° (Epoch: 05 July)

Event Time Altitude Azimuth Distance (km) Brightness Sun altitude
Exits shadow 01:48:59 43° 51° (NE) 599 -2.7 -23.1°
Drops below altitude 10° 01:51:21 10° 54° (NE) 1,498 -0.2 -22.9°
Sets 01:53:28 0° 54° (NE) 2,366 1.0 -22.8°
